Time,TemperatureF,DewpointF,PressureIn,WindDirection,WindDirectionDegrees,WindSpeedMPH,WindSpeedGustMPH,Humidity,HourlyPrecipIn,Conditions,Clouds,dailyrainin,SolarRadiationWatts/m^2,SoftwareType,DateUTC
2013-03-02 00:00:00,33.1,21.9,29.86,NW,309,6.8,10.4,63,0.00,OVC,,0.00,0.0,WeatherDisplay:10.37,2013-03-02 05:00:00,
2013-03-02 00:01:00,33.1,21.9,29.86,NW,311,7.2,9.2,63,0.00,OVC,,0.00,0.0,WeatherDisplay:10.37,2013-03-02 05:01:00,
2013-03-02 00:06:00,33.1,21.9,29.86,NW,310,8.7,8.7,63,0.00,OVC,,0.00,0.0,WeatherDisplay:10.37,2013-03-02 05:06:00,
2013-03-02 00:11:00,33.1,21.9,29.86,NW,326,7.9,9.2,63,0.00,OVC,,0.00,0.0,WeatherDisplay:10.37,2013-03-02 05:11:00,
2013-03-02 00:16:00,33.1,21.9,29.86,NW,313,7.3,9.0,63,0.00,OVC,,0.00,0.0,WeatherDisplay:10.37,2013-03-02 05:16:00,
2013-03-02 00:21:00,33.1,21.9,29.86,NNW,328,11.7,15.0,63,0.00,OVC,,0.00,0.0,WeatherDisplay:10.37,2013-03-02 05:21:00,
2013-03-02 00:26:00,33.2,21.6,29.86,NW,324,12.8,15.0,62,0.00,OVC,,0.00,0.0,WeatherDisplay:10.37,2013-03-02 05:26:00,
2013-03-02 00:31:00,33.2,21.6,29.86,NW,317,9.1,13.8,62,0.00,OVC,,0.00,0.0,WeatherDisplay:10.37,2013-03-02 05:31:00,
2013-03-02 00:36:00,33.1,21.9,29.86,NW,313,9.0,10.5,63,0.00,OVC,,0.00,0.0,WeatherDisplay:10.37,2013-03-02 05:36:00,
2013-03-02 00:41:00,33.1,21.9,29.86,WNW,301,10.9,15.0,63,0.00,OVC,,0.00,0.0,WeatherDisplay:10.37,2013-03-02 05:41:00,
2013-03-02 00:46:00,33.1,22.2,29.86,NW,309,8.9,13.8,64,0.00,OVC,,0.00,0.0,WeatherDisplay:10.37,2013-03-02 05:46:00,
2013-03-02 00:51:00,33.1,22.2,29.86,WNW,302,16.0,16.1,64,0.00,OVC,,0.00,0.0,WeatherDisplay:10.37,2013-03-02 05:51:00,
2013-03-02 00:56:00,33.1,22.2,29.86,NW,304,7.3,10.4,64,0.00,OVC,,0.00,0.0,WeatherDisplay:10.37,2013-03-02 05:56:00,
2013-03-02 01:01:00,33.1,22.2,29.86,NW,321,7.8,13.8,64,0.00,OVC,,0.00,0.0,WeatherDisplay:10.37,2013-03-02 06:01:00,
2013-03-02 01:06:00,32.9,22.4,29.86,NW,322,16.1,18.4,65,0.00,OVC,,0.00,0.0,WeatherDisplay:10.37,2013-03-02 06:06:00,
2013-03-02 01:11:00,32.9,22.4,29.86,NNW,331,10.3,13.8,65,0.00,OVC,,0.00,0.0,WeatherDisplay:10.37,2013-03-02 06:11:00,
2013-03-02 01:16:00,32.9,22.4,29.86,NW,325,16.9,20.7,65,0.00,OVC,,0.00,0.0,WeatherDisplay:10.37,2013-03-02 06:16:00,
2013-03-02 01:21:00,32.8,22.3,29.86,NNW,327,10.0,16.1,65,0.00,OVC,,0.00,0.0,WeatherDisplay:10.37,2013-03-02 06:21:00,
2013-03-02 01:26:00,32.8,22.3,29.86,North,360,9.8,10.4,65,0.00,OVC,,0.00,0.0,WeatherDisplay:10.37,2013-03-02 06:26:00,
2013-03-02 01:31:00,32.8,22.3,29.86,NNW,331,10.9,13.8,65,0.00,OVC,,0.00,0.0,WeatherDisplay:10.37,2013-03-02 06:31:00,
2013-03-02 01:36:00,32.7,22.2,29.86,WNW,303,14.0,15.0,65,0.00,OVC,,0.00,0.0,WeatherDisplay:10.37,2013-03-02 06:36:00,
2013-03-02 01:41:00,32.7,22.2,29.86,NW,317,15.9,18.4,65,0.00,OVC,,0.00,0.0,WeatherDisplay:10.37,2013-03-02 06:41:00,
2013-03-02 01:46:00,32.8,22.3,29.86,North,350,15.0,18.4,65,0.00,OVC,,0.00,0.0,WeatherDisplay:10.37,2013-03-02 06:46:00,
2013-03-02 01:51:00,32.8,22.3,29.86,NW,317,13.1,16.5,65,0.00,OVC,,0.00,0.0,WeatherDisplay:10.37,2013-03-02 06:51:00,
2013-03-02 01:56:00,32.8,22.3,29.86,NW,325,9.6,9.6,65,0.00,OVC,,0.00,0.0,WeatherDisplay:10.37,2013-03-02 06:56:00,
2013-03-02 02:01:00,32.7,22.2,29.86,NW,311,13.5,15.0,65,0.00,OVC,,0.00,0.0,WeatherDisplay:10.37,2013-03-02 07:01:00,
2013-03-02 02:06:00,32.7,22.2,29.86,NW,321,19.4,19.6,65,0.00,OVC,,0.00,0.0,WeatherDisplay:10.37,2013-03-02 07:06:00,
2013-03-02 02:11:00,32.7,22.2,29.86,NW,311,12.0,13.5,65,0.00,BKN,,0.00,0.0,WeatherDisplay:10.37,2013-03-02 07:11:00,
2013-03-02 02:16:00,32.7,22.2,29.86,NW,318,9.1,15.0,65,0.00,BKN,,0.00,0.0,WeatherDisplay:10.37,2013-03-02 07:16:00,
2013-03-02 02:21:00,32.7,22.2,29.86,WNW,294,8.5,15.0,65,0.00,BKN,,0.00,0.0,WeatherDisplay:10.37,2013-03-02 07:21:00,
2013-03-02 02:26:00,32.7,22.2,29.87,NW,326,6.1,6.1,65,0.00,BKN,,0.00,0.0,WeatherDisplay:10.37,2013-03-02 07:26:00,
2013-03-02 02:31:00,32.5,22.4,29.86,NW,321,9.0,9.2,66,0.00,BKN,,0.00,0.0,WeatherDisplay:10.37,2013-03-02 07:31:00,
2013-03-02 02:36:00,32.5,22.0,29.86,NW,325,14.4,16.1,65,0.00,BKN,,0.00,0.0,WeatherDisplay:10.37,2013-03-02 07:36:00,
2013-03-02 02:41:00,32.5,22.0,29.86,NNW,332,9.3,10.5,65,0.00,BKN,,0.00,0.0,WeatherDisplay:10.37,2013-03-02 07:41:00,
2013-03-02 02:46:00,32.4,22.3,29.86,North,355,10.9,15.0,66,0.00,BKN,,0.00,0.0,WeatherDisplay:10.37,2013-03-02 07:46:00,
2013-03-02 02:51:00,32.4,22.3,29.86,NNW,327,6.8,8.1,66,0.00,BKN,,0.00,0.0,WeatherDisplay:10.37,2013-03-02 07:51:00,
2013-03-02 02:56:00,32.4,22.3,29.86,NNW,331,10.0,11.5,66,0.00,BKN,,0.00,0.0,WeatherDisplay:10.37,2013-03-02 07:56:00,
2013-03-02 03:01:00,32.4,21.9,29.85,NNW,333,7.0,9.2,65,0.00,BKN,,0.00,0.0,WeatherDisplay:10.37,2013-03-02 08:01:00,
2013-03-02 03:06:00,32.4,21.9,29.85,NW,313,10.2,15.0,65,0.00,BKN,,0.00,0.0,WeatherDisplay:10.37,2013-03-02 08:06:00,
2013-03-02 03:11:00,32.2,21.7,29.85,NW,323,7.8,10.4,65,0.00,BKN,,0.00,0.0,WeatherDisplay:10.37,2013-03-02 08:11:00,
2013-03-02 03:16:00,32.2,21.4,29.85,NW,322,15.2,15.2,64,0.00,BKN,,0.00,0.0,WeatherDisplay:10.37,2013-03-02 08:16:00,
2013-03-02 03:21:00,32.2,21.4,29.85,NNW,348,9.1,10.4,64,0.00,BKN,,0.00,0.0,WeatherDisplay:10.37,2013-03-02 08:21:00,
2013-03-02 03:26:00,32.1,21.3,29.85,NNW,344,9.8,9.8,64,0.00,BKN,,0.00,0.0,WeatherDisplay:10.37,2013-03-02 08:26:00,
2013-03-02 03:31:00,32.1,21.3,29.85,NNW,336,6.8,9.2,64,0.00,BKN,,0.00,0.0,WeatherDisplay:10.37,2013-03-02 08:31:00,
2013-03-02 03:36:00,31.9,21.1,29.85,NNW,342,8.1,9.2,64,0.00,BKN,,0.00,0.0,WeatherDisplay:10.37,2013-03-02 08:36:00,
2013-03-02 03:41:00,31.9,21.1,29.85,NNW,328,2.4,4.5,64,0.00,BKN,,0.00,0.0,WeatherDisplay:10.37,2013-03-02 08:41:00,
2013-03-02 03:47:00,31.8,21.0,29.85,North,351,7.6,10.5,64,0.00,BKN,,0.00,0.0,WeatherDisplay:10.37,2013-03-02 08:47:00,
2013-03-02 03:52:00,31.8,20.6,29.85,NW,306,14.8,19.6,63,0.00,BKN,,0.00,0.0,WeatherDisplay:10.37,2013-03-02 08:52:00,
2013-03-02 03:57:00,31.8,20.6,29.85,NNW,327,9.7,9.7,63,0.00,BKN,,0.00,0.0,WeatherDisplay:10.37,2013-03-02 08:57:00,
2013-03-02 04:02:00,31.8,20.6,29.85,NW,307,15.0,18.4,63,0.00,BKN,,0.00,0.0,WeatherDisplay:10.37,2013-03-02 09:02:00,
2013-03-02 04:07:00,31.8,20.6,29.85,NNW,344,10.9,15.0,63,0.00,BKN,,0.00,0.0,WeatherDisplay:10.37,2013-03-02 09:07:00,
2013-03-02 04:12:00,31.6,20.4,29.85,WNW,294,13.6,13.6,63,0.00,OVC,,0.00,0.0,WeatherDisplay:10.37,2013-03-02 09:12:00,
2013-03-02 04:17:00,31.6,20.1,29.85,NW,323,7.7,9.2,62,0.00,OVC,,0.00,0.0,WeatherDisplay:10.37,2013-03-02 09:17:00,
2013-03-02 04:22:00,31.6,20.4,29.85,West,275,9.6,15.0,63,0.00,OVC,,0.00,0.0,WeatherDisplay:10.37,2013-03-02 09:22:00,
2013-03-02 04:27:00,31.5,20.3,29.85,NW,313,7.6,10.5,63,0.00,OVC,,0.00,0.0,WeatherDisplay:10.37,2013-03-02 09:27:00,
2013-03-02 04:32:00,31.5,20.3,29.85,NNW,327,13.0,15.0,63,0.00,OVC,,0.00,0.0,WeatherDisplay:10.37,2013-03-02 09:32:00,
2013-03-02 04:37:00,31.5,20.3,29.86,NW,304,11.6,13.5,63,0.00,OVC,,0.00,0.0,WeatherDisplay:10.37,2013-03-02 09:37:00,
2013-03-02 04:42:00,31.3,20.2,29.86,NNW,346,7.2,10.5,63,0.00,OVC,,0.00,0.0,WeatherDisplay:10.37,2013-03-02 09:42:00,
2013-03-02 04:47:00,31.3,20.2,29.86,NNW,332,7.8,9.2,63,0.00,OVC,,0.00,0.0,WeatherDisplay:10.37,2013-03-02 09:47:00,
2013-03-02 04:52:00,31.3,20.5,29.86,NW,312,6.1,9.2,64,0.00,OVC,,0.00,0.0,WeatherDisplay:10.37,2013-03-02 09:52:00,
2013-03-02 04:57:00,31.3,20.5,29.86,NNW,333,12.8,15.0,64,0.00,OVC,,0.00,0.0,WeatherDisplay:10.37,2013-03-02 09:57:00,
2013-03-02 05:02:00,31.3,20.2,29.86,NW,306,11.6,13.8,63,0.00,CLR,,0.00,0.0,WeatherDisplay:10.37,2013-03-02 10:02:00,
2013-03-02 05:08:00,31.2,20.1,29.87,WNW,296,8.7,10.5,63,0.00,CLR,,0.00,0.0,WeatherDisplay:10.37,2013-03-02 10:08:00,
2013-03-02 05:13:00,31.2,19.7,29.87,WNW,294,11.2,16.1,62,0.00,CLR,,0.00,0.0,WeatherDisplay:10.37,2013-03-02 10:13:00,
2013-03-02 05:18:00,31.2,19.7,29.86,NW,319,16.2,18.4,62,0.00,CLR,,0.00,0.0,WeatherDisplay:10.37,2013-03-02 10:18:00,
2013-03-02 05:23:00,31.0,19.5,29.86,NW,326,9.6,10.4,62,0.00,CLR,,0.00,0.0,WeatherDisplay:10.37,2013-03-02 10:23:00,
2013-03-02 05:28:00,31.0,19.5,29.87,NW,306,10.9,15.0,62,0.00,CLR,,0.00,0.0,WeatherDisplay:10.37,2013-03-02 10:28:00,
2013-03-02 05:33:00,31.0,19.5,29.87,NW,326,15.7,16.1,62,0.00,CLR,,0.00,0.0,WeatherDisplay:10.37,2013-03-02 10:33:00,
2013-03-02 05:38:00,31.0,19.5,29.86,NW,326,13.1,16.5,62,0.00,CLR,,0.00,0.0,WeatherDisplay:10.37,2013-03-02 10:38:00,
2013-03-02 05:43:00,31.0,19.5,29.86,NNW,328,9.0,15.0,62,0.00,CLR,,0.00,0.0,WeatherDisplay:10.37,2013-03-02 10:43:00,
2013-03-02 05:48:00,30.9,19.4,29.86,NW,324,17.9,18.4,62,0.00,CLR,,0.00,0.0,WeatherDisplay:10.37,2013-03-02 10:48:00,
2013-03-02 05:53:00,30.9,19.4,29.87,NW,325,14.1,18.0,62,0.00,CLR,,0.00,0.0,WeatherDisplay:10.37,2013-03-02 10:53:00,
2013-03-02 05:58:00,30.9,19.4,29.87,NW,325,12.0,16.1,62,0.00,CLR,,0.00,0.0,WeatherDisplay:10.37,2013-03-02 10:58:00,
2013-03-02 06:03:00,30.9,19.4,29.87,NW,313,10.6,13.8,62,0.00,CLR,,0.00,0.0,WeatherDisplay:10.37,2013-03-02 11:03:00,
2013-03-02 06:08:00,30.9,19.8,29.87,WNW,297,7.2,8.1,63,0.00,CLR,,0.00,0.0,WeatherDisplay:10.37,2013-03-02 11:08:00,
2013-03-02 06:13:00,30.7,19.6,29.87,NNW,345,13.4,16.1,63,0.00,CLR,,0.00,0.0,WeatherDisplay:10.37,2013-03-02 11:13:00,
2013-03-02 06:18:00,30.7,19.6,29.87,NW,312,9.8,10.4,63,0.00,CLR,,0.00,0.0,WeatherDisplay:10.37,2013-03-02 11:18:00,
2013-03-02 06:23:00,30.7,19.6,29.87,NNW,331,8.5,10.5,63,0.00,CLR,,0.00,0.0,WeatherDisplay:10.37,2013-03-02 11:23:00,
2013-03-02 06:28:00,30.7,19.2,29.87,NW,319,8.7,9.2,62,0.00,CLR,,0.00,0.0,WeatherDisplay:10.37,2013-03-02 11:28:00,
2013-03-02 06:33:00,30.7,19.2,29.87,NW,321,7.9,15.0,62,0.00,CLR,,0.00,0.0,WeatherDisplay:10.37,2013-03-02 11:33:00,
2013-03-02 06:38:00,30.7,19.2,29.87,NW,320,8.6,13.8,62,0.00,CLR,,0.00,0.0,WeatherDisplay:10.37,2013-03-02 11:38:00,
2013-03-02 06:43:00,30.7,19.2,29.87,NNW,334,10.7,16.1,62,0.00,CLR,,0.00,0.0,WeatherDisplay:10.37,2013-03-02 11:43:00,
2013-03-02 06:48:00,30.7,19.2,29.87,NNW,327,7.8,10.5,62,0.00,CLR,,0.00,0.0,WeatherDisplay:10.37,2013-03-02 11:48:00,
2013-03-02 06:53:00,30.6,19.5,29.87,NNW,340,9.6,9.6,63,0.00,CLR,,0.00,0.0,WeatherDisplay:10.37,2013-03-02 11:53:00,
2013-03-02 06:58:00,30.6,19.9,29.87,NNW,333,6.9,10.4,64,0.00,CLR,,0.00,0.0,WeatherDisplay:10.37,2013-03-02 11:58:00,
2013-03-02 07:03:00,30.4,19.7,29.87,NNW,344,13.9,15.0,64,0.00,CLR,,0.00,0.0,WeatherDisplay:10.37,2013-03-02 12:03:00,
2013-03-02 07:08:00,30.4,19.7,29.87,NNW,342,9.1,15.0,64,0.00,CLR,,0.00,0.0,WeatherDisplay:10.37,2013-03-02 12:08:00,
2013-03-02 07:13:00,30.3,19.6,29.87,NNW,333,19.1,19.1,64,0.00,BKN,,0.00,5.0,WeatherDisplay:10.37,2013-03-02 12:13:00,
2013-03-02 07:18:00,30.3,19.6,29.87,NNW,337,15.2,18.4,64,0.00,BKN,,0.00,7.0,WeatherDisplay:10.37,2013-03-02 12:18:00,
2013-03-02 07:23:00,30.3,19.9,29.87,NNW,345,17.5,17.5,65,0.00,BKN,,0.00,9.0,WeatherDisplay:10.37,2013-03-02 12:23:00,
2013-03-02 07:28:00,30.3,19.9,29.87,North,355,13.3,18.0,65,0.00,BKN,,0.00,11.0,WeatherDisplay:10.37,2013-03-02 12:28:00,
2013-03-02 07:33:00,30.1,19.7,29.87,North,355,10.9,15.0,65,0.00,BKN,,0.00,12.0,WeatherDisplay:10.37,2013-03-02 12:33:00,
2013-03-02 07:38:00,30.1,20.1,29.87,NNW,330,13.8,18.0,66,0.00,BKN,,0.00,14.0,WeatherDisplay:10.37,2013-03-02 12:38:00,
2013-03-02 07:43:00,30.1,20.5,29.87,NW,323,8.2,13.8,67,0.00,BKN,,0.00,16.0,WeatherDisplay:10.37,2013-03-02 12:43:00,
2013-03-02 07:48:00,30.0,20.7,29.87,NNW,327,6.0,8.1,68,0.00,BKN,,0.00,19.0,WeatherDisplay:10.37,2013-03-02 12:48:00,
2013-03-02 07:53:00,30.0,20.7,29.87,NNW,336,8.3,9.2,68,0.00,BKN,,0.00,21.0,WeatherDisplay:10.37,2013-03-02 12:53:00,
2013-03-02 07:58:00,30.0,20.7,29.87,WNW,299,18.6,19.5,68,0.00,BKN,,0.00,25.0,WeatherDisplay:10.37,2013-03-02 12:58:00,
2013-03-02 08:03:00,29.8,20.9,29.87,North,360,11.2,11.2,69,0.00,BKN,,0.00,28.0,WeatherDisplay:10.37,2013-03-02 13:03:00,
2013-03-02 08:08:00,29.8,20.5,29.88,NNW,335,9.9,11.5,68,0.00,BKN,,0.00,28.0,WeatherDisplay:10.37,2013-03-02 13:08:00,
2013-03-02 08:13:00,30.0,21.1,29.88,NNW,331,6.7,10.4,69,0.00,OVC,,0.00,32.0,WeatherDisplay:10.37,2013-03-02 13:13:00,
2013-03-02 08:18:00,29.8,20.5,29.88,North,5,14.5,15.0,68,0.00,OVC,,0.00,39.0,WeatherDisplay:10.37,2013-03-02 13:18:00,
2013-03-02 08:23:00,29.8,20.2,29.88,NNW,348,8.8,16.1,67,0.00,OVC,,0.00,42.0,WeatherDisplay:10.37,2013-03-02 13:23:00,
2013-03-02 08:28:00,30.0,20.0,29.88,NW,324,10.5,15.0,66,0.00,OVC,,0.00,44.0,WeatherDisplay:10.37,2013-03-02 13:28:00,
2013-03-02 08:33:00,30.0,20.0,29.88,NNW,331,9.9,13.8,66,0.00,OVC,,0.00,51.0,WeatherDisplay:10.37,2013-03-02 13:33:00,
2013-03-02 08:38:00,30.0,20.0,29.88,NW,306,6.3,8.1,66,0.00,OVC,,0.00,56.0,WeatherDisplay:10.37,2013-03-02 13:38:00,
2013-03-02 08:43:00,30.1,19.7,29.88,NW,318,10.4,12.0,65,0.00,OVC,,0.00,62.0,WeatherDisplay:10.37,2013-03-02 13:43:00,
2013-03-02 08:48:00,30.1,19.7,29.88,NNW,339,6.3,8.1,65,0.00,OVC,,0.00,76.0,WeatherDisplay:10.37,2013-03-02 13:48:00,
2013-03-02 08:53:00,30.3,19.6,29.88,NNW,344,8.5,11.5,64,0.00,OVC,,0.00,83.0,WeatherDisplay:10.37,2013-03-02 13:53:00,
2013-03-02 08:58:00,30.3,19.2,29.88,NW,325,16.2,16.5,63,0.00,OVC,,0.00,84.0,WeatherDisplay:10.37,2013-03-02 13:58:00,
2013-03-02 09:03:00,30.3,19.2,29.88,NNW,334,9.3,10.4,63,0.00,OVC,,0.00,83.0,WeatherDisplay:10.37,2013-03-02 14:03:00,
2013-03-02 09:08:00,30.3,19.6,29.88,NW,320,12.4,15.0,64,0.00,OVC,,0.00,86.0,WeatherDisplay:10.37,2013-03-02 14:08:00,
2013-03-02 09:13:00,30.3,19.9,29.88,WNW,292,4.3,10.4,65,0.00,-SN,,0.00,83.0,WeatherDisplay:10.37,2013-03-02 14:13:00,
2013-03-02 09:18:00,30.1,19.7,29.88,NW,310,9.5,10.4,65,0.00,-SN,,0.00,83.0,WeatherDisplay:10.37,2013-03-02 14:18:00,
2013-03-02 09:23:00,30.1,19.7,29.88,NNW,329,2.8,4.6,65,0.00,-SN,,0.00,79.0,WeatherDisplay:10.37,2013-03-02 14:23:00,
2013-03-02 09:28:00,30.1,19.7,29.88,NNW,329,16.1,16.5,65,0.00,-SN,,0.00,84.0,WeatherDisplay:10.37,2013-03-02 14:28:00,
2013-03-02 09:33:00,30.0,20.0,29.88,WNW,290,8.8,16.1,66,0.00,-SN,,0.00,95.0,WeatherDisplay:10.37,2013-03-02 14:33:00,
2013-03-02 09:38:00,29.8,20.5,29.88,NNW,329,9.7,15.0,68,0.00,-SN,,0.00,120.0,WeatherDisplay:10.37,2013-03-02 14:38:00,
2013-03-02 09:43:00,30.0,20.7,29.88,NNW,331,10.5,15.0,68,0.00,-SN,,0.00,148.0,WeatherDisplay:10.37,2013-03-02 14:43:00,
2013-03-02 09:48:00,30.3,21.0,29.88,NW,326,8.2,10.5,68,0.00,-SN,,0.00,171.0,WeatherDisplay:10.37,2013-03-02 14:48:00,
2013-03-02 09:53:00,30.4,21.1,29.88,NNW,333,14.2,16.5,68,0.00,OVC,,0.00,155.0,WeatherDisplay:10.37,2013-03-02 14:53:00,
2013-03-02 09:58:00,30.4,20.4,29.88,NNW,334,10.0,15.0,66,0.00,OVC,,0.00,125.0,WeatherDisplay:10.37,2013-03-02 14:58:00,
2013-03-02 10:03:00,30.6,20.6,29.88,NW,307,11.6,13.8,66,0.00,OVC,,0.00,142.0,WeatherDisplay:10.37,2013-03-02 15:03:00,
2013-03-02 10:08:00,30.4,20.7,29.87,NNW,340,11.1,15.0,67,0.00,OVC,,0.00,135.0,WeatherDisplay:10.37,2013-03-02 15:08:00,
2013-03-02 10:13:00,30.4,20.4,29.87,NNW,328,11.9,15.0,66,0.00,OVC,,0.00,123.0,WeatherDisplay:10.37,2013-03-02 15:13:00,
2013-03-02 10:18:00,30.4,20.4,29.88,West,278,11.5,16.5,66,0.00,OVC,,0.00,125.0,WeatherDisplay:10.37,2013-03-02 15:18:00,
2013-03-02 10:23:00,30.4,20.7,29.87,NW,321,11.6,15.0,67,0.00,OVC,,0.00,120.0,WeatherDisplay:10.37,2013-03-02 15:23:00,
2013-03-02 10:28:00,30.4,20.7,29.87,NNW,347,13.0,13.0,67,0.00,OVC,,0.00,128.0,WeatherDisplay:10.37,2013-03-02 15:28:00,
2013-03-02 10:33:00,30.6,20.6,29.87,NW,318,8.4,9.2,66,0.00,OVC,,0.00,142.0,WeatherDisplay:10.37,2013-03-02 15:33:00,
2013-03-02 10:38:00,30.7,20.7,29.87,NNW,328,10.5,13.8,66,0.00,OVC,,0.00,146.0,WeatherDisplay:10.37,2013-03-02 15:38:00,
2013-03-02 10:43:00,30.7,20.3,29.87,WNW,288,9.1,10.4,65,0.00,OVC,,0.00,156.0,WeatherDisplay:10.37,2013-03-02 15:43:00,
2013-03-02 10:48:00,30.9,20.9,29.87,NNW,338,11.2,11.5,66,0.00,OVC,,0.00,121.0,WeatherDisplay:10.37,2013-03-02 15:48:00,
2013-03-02 10:53:00,30.6,20.6,29.87,NW,309,8.2,13.8,66,0.00,OVC,,0.00,141.0,WeatherDisplay:10.37,2013-03-02 15:53:00,
2013-03-02 10:58:00,30.7,21.0,29.87,NW,325,11.4,15.0,67,0.00,OVC,,0.00,214.0,WeatherDisplay:10.37,2013-03-02 15:58:00,
2013-03-02 11:03:00,31.2,21.5,29.87,West,277,11.8,13.8,67,0.00,OVC,,0.00,311.0,WeatherDisplay:10.37,2013-03-02 16:03:00,
2013-03-02 11:08:00,31.8,21.4,29.86,WNW,292,8.9,9.2,65,0.00,OVC,,0.00,390.0,WeatherDisplay:10.37,2013-03-02 16:08:00,
2013-03-02 11:13:00,32.4,21.9,29.86,NW,317,9.7,9.7,65,0.00,OVC,,0.00,626.0,WeatherDisplay:10.37,2013-03-02 16:13:00,
2013-03-02 11:18:00,33.2,22.0,29.85,NNW,327,12.9,13.5,63,0.00,OVC,,0.00,529.0,WeatherDisplay:10.37,2013-03-02 16:18:00,
2013-03-02 11:23:00,34.0,21.6,29.85,NNW,346,10.2,15.0,60,0.00,OVC,,0.00,466.0,WeatherDisplay:10.37,2013-03-02 16:23:00,
2013-03-02 11:28:00,34.1,20.9,29.85,WNW,302,14.8,21.0,58,0.00,OVC,,0.00,401.0,WeatherDisplay:10.37,2013-03-02 16:28:00,
2013-03-02 11:33:00,33.8,20.6,29.85,North,351,15.6,18.4,58,0.00,OVC,,0.00,411.0,WeatherDisplay:10.37,2013-03-02 16:33:00,
2013-03-02 11:38:00,34.1,20.9,29.85,North,360,13.9,15.0,58,0.00,OVC,,0.00,380.0,WeatherDisplay:10.37,2013-03-02 16:38:00,
2013-03-02 11:43:00,33.8,20.2,29.85,NW,317,19.4,20.7,57,0.00,OVC,,0.00,316.0,WeatherDisplay:10.37,2013-03-02 16:43:00,
2013-03-02 11:48:00,33.5,19.9,29.85,NNW,336,11.9,16.5,57,0.00,OVC,,0.00,241.0,WeatherDisplay:10.37,2013-03-02 16:48:00,
2013-03-02 11:53:00,33.7,20.5,29.85,WNW,284,11.7,13.8,58,0.00,OVC,,0.00,211.0,WeatherDisplay:10.37,2013-03-02 16:53:00,
2013-03-02 11:58:00,33.4,19.4,29.85,NW,319,17.4,19.6,56,0.00,OVC,,0.00,193.0,WeatherDisplay:10.37,2013-03-02 16:58:00,
2013-03-02 12:03:00,33.1,19.1,29.84,NW,307,13.4,16.1,56,0.00,OVC,,0.00,188.0,WeatherDisplay:10.37,2013-03-02 17:03:00,
2013-03-02 12:08:00,33.2,19.2,29.84,NNW,347,25.1,25.1,56,0.00,OVC,,0.00,204.0,WeatherDisplay:10.37,2013-03-02 17:08:00,
2013-03-02 12:13:00,33.1,19.5,29.84,NW,322,10.7,16.1,57,0.00,OVC,,0.00,221.0,WeatherDisplay:10.37,2013-03-02 17:13:00,
2013-03-02 12:18:00,33.4,19.8,29.84,NNW,345,12.2,18.0,57,0.00,OVC,,0.00,237.0,WeatherDisplay:10.37,2013-03-02 17:18:00,
2013-03-02 12:23:00,33.5,19.5,29.84,NW,323,22.6,23.0,56,0.00,OVC,,0.00,250.0,WeatherDisplay:10.37,2013-03-02 17:23:00,
2013-03-02 12:28:00,33.5,19.5,29.84,NNW,330,10.0,15.0,56,0.00,OVC,,0.00,258.0,WeatherDisplay:10.37,2013-03-02 17:28:00,
2013-03-02 12:33:00,33.7,19.7,29.84,NW,320,15.5,19.6,56,0.00,OVC,,0.00,267.0,WeatherDisplay:10.37,2013-03-02 17:33:00,
2013-03-02 12:38:00,33.8,19.7,29.83,NW,318,15.8,18.4,56,0.00,OVC,,0.00,290.0,WeatherDisplay:10.37,2013-03-02 17:38:00,
2013-03-02 12:43:00,33.8,19.7,29.83,NW,326,13.0,18.0,56,0.00,OVC,,0.00,285.0,WeatherDisplay:10.37,2013-03-02 17:43:00,
2013-03-02 12:48:00,34.0,19.9,29.83,NW,315,18.7,19.6,56,0.00,OVC,,0.00,311.0,WeatherDisplay:10.37,2013-03-02 17:48:00,
2013-03-02 12:53:00,34.0,20.3,29.83,NW,324,18.6,18.6,57,0.00,-SN,,0.00,343.0,WeatherDisplay:10.37,2013-03-02 17:53:00,
2013-03-02 12:58:00,34.1,20.4,29.83,WNW,299,16.7,18.0,57,0.00,-SN,,0.00,366.0,WeatherDisplay:10.37,2013-03-02 17:58:00,
2013-03-02 13:03:00,34.3,20.6,29.83,North,350,14.6,19.6,57,0.00,OVC,,0.00,301.0,WeatherDisplay:10.37,2013-03-02 18:03:00,
2013-03-02 13:08:00,34.1,20.4,29.82,NW,306,13.0,16.5,57,0.00,OVC,,0.00,359.0,WeatherDisplay:10.37,2013-03-02 18:08:00,
2013-03-02 13:13:00,34.1,20.4,29.82,NW,320,12.7,15.0,57,0.00,OVC,,0.00,221.0,WeatherDisplay:10.37,2013-03-02 18:13:00,
2013-03-02 13:18:00,33.7,20.5,29.82,NNW,339,14.6,16.5,58,0.00,OVC,,0.00,202.0,WeatherDisplay:10.37,2013-03-02 18:18:00,
2013-03-02 13:23:00,33.7,20.9,29.82,NNW,331,10.7,15.0,59,0.00,OVC,,0.00,181.0,WeatherDisplay:10.37,2013-03-02 18:23:00,
2013-03-02 13:28:00,33.7,20.9,29.82,North,5,12.6,16.1,59,0.00,OVC,,0.00,200.0,WeatherDisplay:10.37,2013-03-02 18:28:00,
2013-03-02 13:33:00,33.8,21.0,29.81,NNW,344,14.5,16.1,59,0.00,OVC,,0.00,292.0,WeatherDisplay:10.37,2013-03-02 18:33:00,
2013-03-02 13:39:00,34.1,21.3,29.81,North,9,21.7,21.7,59,0.00,OVC,,0.00,299.0,WeatherDisplay:10.37,2013-03-02 18:39:00,
2013-03-02 13:44:00,34.3,21.4,29.81,NNW,333,19.1,19.6,59,0.00,OVC,,0.00,250.0,WeatherDisplay:10.37,2013-03-02 18:44:00,
2013-03-02 13:49:00,34.0,21.2,29.81,North,351,17.9,17.9,59,0.00,OVC,,0.00,200.0,WeatherDisplay:10.37,2013-03-02 18:49:00,
2013-03-02 13:54:00,33.8,21.4,29.81,NNW,343,5.8,8.1,60,0.00,OVC,,0.00,146.0,WeatherDisplay:10.37,2013-03-02 18:54:00,
2013-03-02 13:59:00,33.7,22.1,29.81,North,5,9.5,15.0,62,0.00,OVC,,0.00,227.0,WeatherDisplay:10.37,2013-03-02 18:59:00,
2013-03-02 14:04:00,33.7,22.1,29.81,North,355,12.4,13.5,62,0.00,OVC,,0.00,278.0,WeatherDisplay:10.37,2013-03-02 19:04:00,
2013-03-02 14:09:00,34.0,22.7,29.81,NW,313,10.2,11.5,63,0.00,OVC,,0.00,290.0,WeatherDisplay:10.37,2013-03-02 19:09:00,
2013-03-02 14:14:00,34.3,22.6,29.81,NW,304,16.7,16.7,62,0.00,OVC,,0.00,294.0,WeatherDisplay:10.37,2013-03-02 19:14:00,
2013-03-02 14:19:00,34.6,22.9,29.81,NNW,327,10.6,15.0,62,0.00,OVC,,0.00,241.0,WeatherDisplay:10.37,2013-03-02 19:19:00,
2013-03-02 14:24:00,34.3,22.2,29.81,NNW,340,10.1,16.1,61,0.00,OVC,,0.00,181.0,WeatherDisplay:10.37,2013-03-02 19:24:00,
2013-03-02 14:29:00,33.8,22.5,29.81,NW,316,16.5,18.4,63,0.00,OVC,,0.00,230.0,WeatherDisplay:10.37,2013-03-02 19:29:00,
2013-03-02 14:34:00,33.8,22.5,29.81,NW,317,9.4,13.8,63,0.00,OVC,,0.00,241.0,WeatherDisplay:10.37,2013-03-02 19:34:00,
2013-03-02 14:39:00,34.1,22.8,29.81,NW,323,15.7,15.7,63,0.00,OVC,,0.00,302.0,WeatherDisplay:10.37,2013-03-02 19:39:00,
2013-03-02 14:44:00,34.9,23.9,29.81,NNW,333,7.7,12.0,64,0.00,OVC,,0.00,638.0,WeatherDisplay:10.37,2013-03-02 19:44:00,
2013-03-02 14:49:00,35.9,23.7,29.81,NNW,328,8.9,9.2,61,0.00,OVC,,0.00,276.0,WeatherDisplay:10.37,2013-03-02 19:49:00,
2013-03-02 14:54:00,35.5,22.6,29.81,NNW,329,11.9,20.7,59,0.00,OVC,,0.00,251.0,WeatherDisplay:10.37,2013-03-02 19:54:00,
2013-03-02 14:59:00,35.0,22.5,29.81,NW,308,16.2,16.2,60,0.00,OVC,,0.00,137.0,WeatherDisplay:10.37,2013-03-02 19:59:00,
2013-03-02 15:04:00,34.4,21.9,29.81,NW,306,10.7,11.5,60,0.00,OVC,,0.00,149.0,WeatherDisplay:10.37,2013-03-02 20:04:00,
2013-03-02 15:09:00,34.4,22.3,29.81,NW,314,17.6,17.6,61,0.00,OVC,,0.00,188.0,WeatherDisplay:10.37,2013-03-02 20:09:00,
2013-03-02 15:14:00,33.8,22.9,29.81,NNW,328,14.3,15.0,64,0.00,OVC,,0.00,139.0,WeatherDisplay:10.37,2013-03-02 20:14:00,
2013-03-02 15:19:00,33.8,23.6,29.81,North,355,14.6,16.5,66,0.00,OVC,,0.00,192.0,WeatherDisplay:10.37,2013-03-02 20:19:00,
2013-03-02 15:24:00,33.5,23.7,29.81,NNW,348,11.8,15.0,67,0.00,OVC,,0.00,186.0,WeatherDisplay:10.37,2013-03-02 20:24:00,
2013-03-02 15:29:00,33.4,24.0,29.82,NNW,344,13.5,15.0,68,0.00,OVC,,0.00,258.0,WeatherDisplay:10.37,2013-03-02 20:29:00,
2013-03-02 15:34:00,33.2,23.8,29.81,NNW,346,13.6,21.0,68,0.00,OVC,,0.00,178.0,WeatherDisplay:10.37,2013-03-02 20:34:00,
2013-03-02 15:40:00,33.1,24.0,29.81,North,355,9.5,11.5,69,0.00,OVC,,0.00,178.0,WeatherDisplay:10.37,2013-03-02 20:40:00,
2013-03-02 15:45:00,32.9,24.2,29.81,NNW,346,13.8,19.6,70,0.00,OVC,,0.00,169.0,WeatherDisplay:10.37,2013-03-02 20:45:00,
2013-03-02 15:50:00,33.1,24.4,29.82,NW,315,15.3,18.0,70,0.00,OVC,,0.00,183.0,WeatherDisplay:10.37,2013-03-02 20:50:00,
2013-03-02 15:55:00,33.2,24.1,29.81,NW,314,24.2,24.2,69,0.00,OVC,,0.00,171.0,WeatherDisplay:10.37,2013-03-02 20:55:00,
2013-03-02 16:00:00,32.9,24.9,29.82,NW,320,10.0,19.6,72,0.00,OVC,,0.00,167.0,WeatherDisplay:10.37,2013-03-02 21:00:00,
2013-03-02 16:05:00,32.9,24.9,29.82,NW,319,10.3,15.0,72,0.00,-SN,,0.00,141.0,WeatherDisplay:10.37,2013-03-02 21:05:00,
2013-03-02 16:10:00,32.7,24.3,29.82,NNW,332,16.9,16.9,71,0.00,-SN,,0.00,142.0,WeatherDisplay:10.37,2013-03-02 21:10:00,
2013-03-02 16:15:00,32.8,25.1,29.82,North,5,13.5,19.6,73,0.00,-SN,,0.00,241.0,WeatherDisplay:10.37,2013-03-02 21:15:00,
2013-03-02 16:20:00,33.1,24.7,29.82,North,351,19.8,19.8,71,0.00,-SN,,0.00,269.0,WeatherDisplay:10.37,2013-03-02 21:20:00,
2013-03-02 16:25:00,33.2,24.5,29.82,NNW,348,21.7,23.0,70,0.00,-SN,,0.00,214.0,WeatherDisplay:10.37,2013-03-02 21:25:00,
2013-03-02 16:30:00,32.9,24.5,29.82,NNW,336,13.7,20.7,71,0.00,-SN,,0.00,204.0,WeatherDisplay:10.37,2013-03-02 21:30:00,
2013-03-02 16:35:00,33.1,24.7,29.82,NNW,347,14.9,20.7,71,0.00,-SN,,0.00,229.0,WeatherDisplay:10.37,2013-03-02 21:35:00,
2013-03-02 16:40:00,33.1,24.7,29.82,NNW,333,13.9,15.0,71,0.00,-SN,,0.00,163.0,WeatherDisplay:10.37,2013-03-02 21:40:00,
2013-03-02 16:45:00,32.9,24.5,29.82,North,5,12.1,18.4,71,0.00,-SN,,0.00,114.0,WeatherDisplay:10.37,2013-03-02 21:45:00,
2013-03-02 16:50:00,32.5,24.1,29.82,NW,304,13.7,15.0,71,0.00,-SN,,0.00,72.0,WeatherDisplay:10.37,2013-03-02 21:50:00,
2013-03-02 16:55:00,31.9,23.6,29.82,NNW,327,15.2,16.1,71,0.00,-SN,,0.00,70.0,WeatherDisplay:10.37,2013-03-02 21:55:00,
2013-03-02 17:00:00,31.9,23.6,29.82,NW,317,11.7,19.6,71,0.00,-SN,,0.00,54.0,WeatherDisplay:10.37,2013-03-02 22:00:00,
2013-03-02 17:05:00,31.6,22.9,29.82,NW,306,17.7,20.7,70,0.00,-SN,,0.00,69.0,WeatherDisplay:10.37,2013-03-02 22:05:00,
2013-03-02 17:10:00,31.8,23.1,29.82,North,349,21.3,21.3,70,0.00,-SN,,0.00,72.0,WeatherDisplay:10.37,2013-03-02 22:10:00,
2013-03-02 17:15:00,31.8,22.4,29.82,NW,313,12.4,16.1,68,0.00,-SN,,0.00,76.0,WeatherDisplay:10.37,2013-03-02 22:15:00,
2013-03-02 17:20:00,32.1,22.0,29.82,NNW,329,13.4,15.0,66,0.00,-SN,,0.00,72.0,WeatherDisplay:10.37,2013-03-02 22:20:00,
2013-03-02 17:25:00,32.2,21.7,29.82,WNW,302,23.3,23.3,65,0.00,-SN,,0.00,63.0,WeatherDisplay:10.37,2013-03-02 22:25:00,
2013-03-02 17:30:00,32.2,21.4,29.82,NNW,343,18.9,21.0,64,0.00,-SN,,0.00,51.0,WeatherDisplay:10.37,2013-03-02 22:30:00,
2013-03-02 17:35:00,32.1,21.3,29.82,NW,325,21.6,24.2,64,0.00,-SN,,0.00,40.0,WeatherDisplay:10.37,2013-03-02 22:35:00,
2013-03-02 17:40:00,31.8,21.7,29.83,NNW,338,18.6,20.7,66,0.00,-SN,,0.00,35.0,WeatherDisplay:10.37,2013-03-02 22:40:00,
2013-03-02 17:45:00,31.5,21.8,29.83,WNW,300,17.4,23.0,67,0.00,-SN,,0.00,26.0,WeatherDisplay:10.37,2013-03-02 22:45:00,
2013-03-02 17:50:00,31.3,22.0,29.83,NW,307,15.4,19.6,68,0.00,-SN,,0.00,18.0,WeatherDisplay:10.37,2013-03-02 22:50:00,
2013-03-02 17:55:00,31.2,21.9,29.83,NW,317,17.7,19.6,68,0.00,-SN,,0.00,14.0,WeatherDisplay:10.37,2013-03-02 22:55:00,
2013-03-02 18:00:00,31.2,21.9,29.84,NW,307,10.2,13.8,68,0.00,-SN,,0.00,7.0,WeatherDisplay:10.37,2013-03-02 23:00:00,
2013-03-02 18:05:00,31.0,21.7,29.84,NW,323,13.3,15.0,68,0.00,-SN,,0.00,0.0,WeatherDisplay:10.37,2013-03-02 23:05:00,
2013-03-02 18:10:00,31.0,21.7,29.84,NNW,336,11.7,16.5,68,0.00,-SN,,0.00,0.0,WeatherDisplay:10.37,2013-03-02 23:10:00,
2013-03-02 18:15:00,30.9,21.6,29.84,WNW,303,9.7,10.5,68,0.00,BKN,,0.00,0.0,WeatherDisplay:10.37,2013-03-02 23:15:00,
2013-03-02 18:20:00,30.7,21.7,29.84,NW,315,8.5,13.8,69,0.00,BKN,,0.00,0.0,WeatherDisplay:10.37,2013-03-02 23:20:00,
2013-03-02 18:25:00,30.6,21.6,29.84,NW,311,7.1,7.1,69,0.00,BKN,,0.00,0.0,WeatherDisplay:10.37,2013-03-02 23:25:00,
2013-03-02 18:30:00,30.6,21.6,29.84,WNW,288,7.0,10.4,69,0.00,BKN,,0.00,0.0,WeatherDisplay:10.37,2013-03-02 23:30:00,
2013-03-02 18:35:00,30.6,21.6,29.84,NW,325,9.9,12.0,69,0.00,BKN,,0.00,0.0,WeatherDisplay:10.37,2013-03-02 23:35:00,
2013-03-02 18:40:00,30.6,21.3,29.85,WNW,303,8.3,9.2,68,0.00,BKN,,0.00,0.0,WeatherDisplay:10.37,2013-03-02 23:40:00,
2013-03-02 18:45:00,30.6,21.3,29.85,NW,317,7.1,9.2,68,0.00,BKN,,0.00,0.0,WeatherDisplay:10.37,2013-03-02 23:45:00,
2013-03-02 18:50:00,30.6,21.3,29.85,NNW,333,6.5,10.5,68,0.00,BKN,,0.00,0.0,WeatherDisplay:10.37,2013-03-02 23:50:00,
2013-03-02 18:55:00,30.4,21.1,29.85,NW,313,7.6,8.1,68,0.00,BKN,,0.00,0.0,WeatherDisplay:10.37,2013-03-02 23:55:00,
2013-03-02 19:00:00,30.4,21.1,29.85,NW,313,2.5,4.6,68,0.00,BKN,,0.00,0.0,WeatherDisplay:10.37,2013-03-03 00:00:00,
2013-03-02 19:05:00,30.3,21.0,29.85,NW,321,4.8,4.8,68,0.00,BKN,,0.00,0.0,WeatherDisplay:10.37,2013-03-03 00:05:00,
2013-03-02 19:10:00,30.1,20.8,29.85,NNW,327,6.3,9.0,68,0.00,BKN,,0.00,0.0,WeatherDisplay:10.37,2013-03-03 00:10:00,
2013-03-02 19:15:00,30.1,20.5,29.85,NW,323,5.9,8.1,67,0.00,BKN,,0.00,0.0,WeatherDisplay:10.37,2013-03-03 00:15:00,
2013-03-02 19:20:00,30.1,20.5,29.85,NW,311,4.1,5.8,67,0.00,BKN,,0.00,0.0,WeatherDisplay:10.37,2013-03-03 00:20:00,
2013-03-02 19:25:00,30.1,20.5,29.85,NNW,328,6.6,9.0,67,0.00,BKN,,0.00,0.0,WeatherDisplay:10.37,2013-03-03 00:25:00,
2013-03-02 19:30:00,30.1,20.1,29.85,WNW,295,6.9,10.5,66,0.00,BKN,,0.00,0.0,WeatherDisplay:10.37,2013-03-03 00:30:00,
2013-03-02 19:35:00,30.1,20.1,29.85,NNW,328,9.6,10.4,66,0.00,BKN,,0.00,0.0,WeatherDisplay:10.37,2013-03-03 00:35:00,
2013-03-02 19:40:00,30.3,19.9,29.85,NW,322,5.1,13.8,65,0.00,BKN,,0.00,0.0,WeatherDisplay:10.37,2013-03-03 00:40:00,
2013-03-02 19:45:00,30.3,19.9,29.85,NW,316,9.8,12.0,65,0.00,BKN,,0.00,0.0,WeatherDisplay:10.37,2013-03-03 00:45:00,
2013-03-02 19:50:00,30.3,19.9,29.85,NW,317,4.2,6.0,65,0.00,BKN,,0.00,0.0,WeatherDisplay:10.37,2013-03-03 00:50:00,
2013-03-02 19:55:00,30.4,19.7,29.85,North,349,8.7,10.5,64,0.00,BKN,,0.00,0.0,WeatherDisplay:10.37,2013-03-03 00:55:00,
2013-03-02 20:00:00,30.6,19.5,29.85,WNW,292,9.4,13.8,63,0.00,BKN,,0.00,0.0,WeatherDisplay:10.37,2013-03-03 01:00:00,
2013-03-02 20:05:00,30.6,19.5,29.85,NW,313,8.8,13.5,63,0.00,BKN,,0.00,0.0,WeatherDisplay:10.37,2013-03-03 01:05:00,
2013-03-02 20:10:00,30.7,19.6,29.85,NNW,330,9.5,15.0,63,0.00,BKN,,0.00,0.0,WeatherDisplay:10.37,2013-03-03 01:10:00,
2013-03-02 20:15:00,30.7,19.2,29.85,North,360,9.7,10.4,62,0.00,SCT,,0.00,0.0,WeatherDisplay:10.37,2013-03-03 01:15:00,
2013-03-02 20:20:00,30.7,19.2,29.85,NNW,337,7.0,12.0,62,0.00,SCT,,0.00,0.0,WeatherDisplay:10.37,2013-03-03 01:20:00,
2013-03-02 20:25:00,30.7,19.6,29.85,NNW,341,11.9,16.1,63,0.00,SCT,,0.00,0.0,WeatherDisplay:10.37,2013-03-03 01:25:00,
2013-03-02 20:30:00,30.7,19.2,29.85,NNW,338,12.6,13.5,62,0.00,SCT,,0.00,0.0,WeatherDisplay:10.37,2013-03-03 01:30:00,
2013-03-02 20:35:00,30.7,19.6,29.85,NW,323,10.6,15.0,63,0.00,SCT,,0.00,0.0,WeatherDisplay:10.37,2013-03-03 01:35:00,
2013-03-02 20:40:00,30.7,19.6,29.86,WNW,292,7.9,13.8,63,0.00,SCT,,0.00,0.0,WeatherDisplay:10.37,2013-03-03 01:40:00,
2013-03-02 20:45:00,30.6,19.5,29.86,NW,316,7.5,12.0,63,0.00,SCT,,0.00,0.0,WeatherDisplay:10.37,2013-03-03 01:45:00,
2013-03-02 20:50:00,30.6,19.5,29.86,NW,325,8.1,8.1,63,0.00,SCT,,0.00,0.0,WeatherDisplay:10.37,2013-03-03 01:50:00,
2013-03-02 20:55:00,30.4,19.7,29.86,NNW,336,8.1,9.2,64,0.00,SCT,,0.00,0.0,WeatherDisplay:10.37,2013-03-03 01:55:00,
2013-03-02 21:00:00,30.3,19.6,29.86,NNW,333,4.7,8.1,64,0.00,SCT,,0.00,0.0,WeatherDisplay:10.37,2013-03-03 02:00:00,
2013-03-02 21:05:00,30.1,19.4,29.86,NNW,331,9.9,13.5,64,0.00,CLR,,0.00,0.0,WeatherDisplay:10.37,2013-03-03 02:05:00,
2013-03-02 21:10:00,30.1,19.4,29.86,NW,324,9.3,13.8,64,0.00,CLR,,0.00,0.0,WeatherDisplay:10.37,2013-03-03 02:10:00,
2013-03-02 21:15:00,30.0,19.3,29.87,NW,314,8.5,9.2,64,0.00,CLR,,0.00,0.0,WeatherDisplay:10.37,2013-03-03 02:15:00,
2013-03-02 21:20:00,29.8,19.5,29.87,North,350,8.0,9.2,65,0.00,CLR,,0.00,0.0,WeatherDisplay:10.37,2013-03-03 02:20:00,
2013-03-02 21:25:00,29.7,19.4,29.87,NNW,328,3.7,8.1,65,0.00,CLR,,0.00,0.0,WeatherDisplay:10.37,2013-03-03 02:25:00,
2013-03-02 21:30:00,29.7,19.4,29.87,NW,319,6.9,7.5,65,0.00,CLR,,0.00,0.0,WeatherDisplay:10.37,2013-03-03 02:30:00,
2013-03-02 21:35:00,29.7,19.4,29.87,NW,319,6.8,9.2,65,0.00,CLR,,0.00,0.0,WeatherDisplay:10.37,2013-03-03 02:35:00,
2013-03-02 21:40:00,29.5,19.2,29.86,NW,323,5.3,8.1,65,0.00,CLR,,0.00,0.0,WeatherDisplay:10.37,2013-03-03 02:40:00,
2013-03-02 21:45:00,29.5,19.5,29.86,NNW,329,9.9,13.8,66,0.00,CLR,,0.00,0.0,WeatherDisplay:10.37,2013-03-03 02:45:00,
2013-03-02 21:50:00,29.7,19.7,29.86,NNW,328,11.7,15.0,66,0.00,CLR,,0.00,0.0,WeatherDisplay:10.37,2013-03-03 02:50:00,
2013-03-02 21:55:00,29.8,20.2,29.86,NW,321,14.0,14.0,67,0.00,CLR,,0.00,0.0,WeatherDisplay:10.37,2013-03-03 02:55:00,
2013-03-02 22:00:00,30.0,20.4,29.86,NNW,340,8.0,9.2,67,0.00,CLR,,0.00,0.0,WeatherDisplay:10.37,2013-03-03 03:00:00,
2013-03-02 22:05:00,30.0,20.7,29.86,NNW,336,12.4,16.5,68,0.00,CLR,,0.00,0.0,WeatherDisplay:10.37,2013-03-03 03:05:00,
2013-03-02 22:10:00,30.0,20.7,29.86,NNW,331,12.5,12.5,68,0.00,CLR,,0.00,0.0,WeatherDisplay:10.37,2013-03-03 03:10:00,
2013-03-02 22:15:00,30.0,20.7,29.86,NNW,328,8.9,10.5,68,0.00,CLR,,0.00,0.0,WeatherDisplay:10.37,2013-03-03 03:15:00,
2013-03-02 22:20:00,29.8,20.9,29.86,NW,324,10.3,13.5,69,0.00,CLR,,0.00,0.0,WeatherDisplay:10.37,2013-03-03 03:20:00,
2013-03-02 22:25:00,29.7,21.1,29.86,NW,313,14.1,15.0,70,0.00,CLR,,0.00,0.0,WeatherDisplay:10.37,2013-03-03 03:25:00,
2013-03-02 22:30:00,29.5,20.9,29.86,NW,306,15.4,18.0,70,0.00,CLR,,0.00,0.0,WeatherDisplay:10.37,2013-03-03 03:30:00,
2013-03-02 22:35:00,29.4,21.2,29.86,NW,319,13.0,15.0,71,0.00,CLR,,0.00,0.0,WeatherDisplay:10.37,2013-03-03 03:35:00,
2013-03-02 22:40:00,29.3,21.1,29.86,WNW,300,10.5,13.8,71,0.00,CLR,,0.00,0.0,WeatherDisplay:10.37,2013-03-03 03:40:00,
2013-03-02 22:45:00,29.1,21.2,29.86,WNW,302,13.3,13.8,72,0.00,CLR,,0.00,0.0,WeatherDisplay:10.37,2013-03-03 03:45:00,
2013-03-02 22:50:00,29.0,21.1,29.85,NW,314,7.6,10.4,72,0.00,CLR,,0.00,0.0,WeatherDisplay:10.37,2013-03-03 03:50:00,
2013-03-02 22:55:00,29.0,21.4,29.85,NW,321,3.5,5.8,73,0.00,CLR,,0.00,0.0,WeatherDisplay:10.37,2013-03-03 03:55:00,
2013-03-02 23:00:00,29.0,21.4,29.85,NNW,327,8.2,9.2,73,0.00,CLR,,0.00,0.0,WeatherDisplay:10.37,2013-03-03 04:00:00,
2013-03-02 23:05:00,29.0,21.4,29.85,NW,321,2.9,6.0,73,0.00,CLR,,0.00,0.0,WeatherDisplay:10.37,2013-03-03 04:05:00,
2013-03-02 23:10:00,29.0,21.4,29.85,NW,321,3.1,4.6,73,0.00,CLR,,0.00,0.0,WeatherDisplay:10.37,2013-03-03 04:10:00,
2013-03-02 23:15:00,29.0,21.4,29.85,WNW,292,4.4,5.8,73,0.00,CLR,,0.00,0.0,WeatherDisplay:10.37,2013-03-03 04:15:00,
2013-03-02 23:20:00,29.1,21.5,29.85,NW,304,6.7,7.5,73,0.00,CLR,,0.00,0.0,WeatherDisplay:10.37,2013-03-03 04:20:00,
2013-03-02 23:25:00,29.0,21.1,29.85,NW,317,1.3,4.6,72,0.00,CLR,,0.00,0.0,WeatherDisplay:10.37,2013-03-03 04:25:00,
2013-03-02 23:30:00,29.0,21.1,29.85,NW,317,1.9,3.5,72,0.00,CLR,,0.00,0.0,WeatherDisplay:10.37,2013-03-03 04:30:00,
2013-03-02 23:35:00,28.8,20.6,29.85,NW,317,1.9,4.6,71,0.00,CLR,,0.00,0.0,WeatherDisplay:10.37,2013-03-03 04:35:00,
2013-03-02 23:40:00,28.8,20.6,29.85,NW,314,4.8,4.8,71,0.00,CLR,,0.00,0.0,WeatherDisplay:10.37,2013-03-03 04:40:00,
2013-03-02 23:45:00,28.8,20.2,29.85,NW,314,2.0,4.6,70,0.00,CLR,,0.00,0.0,WeatherDisplay:10.37,2013-03-03 04:45:00,
2013-03-02 23:50:00,28.8,19.9,29.85,NW,318,2.1,4.6,69,0.00,CLR,,0.00,0.0,WeatherDisplay:10.37,2013-03-03 04:50:00,
2013-03-02 23:55:00,28.7,19.5,29.85,NW,306,5.8,9.0,68,0.00,CLR,,0.00,0.0,WeatherDisplay:10.37,2013-03-03 04:55:00,